Wind_Speed
26 26 27 27 28 28 29 29 29 30 30 30 30 30 29 28 27 26 25 26 26 26 25 25 24 24 24 24 24 24 24 24 24 24 24 25 24 24 24 24 24 24 25
27 27 27 27 28 28 29 29 29 29 30 31 31 31 30 28 27 26 26 25 25 25 25 26 25 24 23 23 24 24 24 25 24 24 24 24 24 25 25 25 25 25 25
28 28 28 28 28 29 29 29 29 30 31 31 31 30 29 28 28 27 27 26 25 26 26 26 24 22 22 22 24 24 24 25 25 24 24 24 24 24 25 26 26 26 25
29 30 30 29 29 29 29 29 29 30 31 31 30 30 29 28 28 27 26 26 26 26 26 25 24 23 22 22 23 24 24 25 26 25 24 24 25 25 25 26 26 26 26
31 32 31 31 30 29 30 30 29 29 30 30 30 30 29 28 27 26 26 26 25 26 25 24 23 23 23 23 23 24 25 25 25 25 25 26 25 26 27 26 27 27 27
32 32 32 31 31 30 30 30 30 30 30 30 29 29 28 27 26 25 25 25 25 25 24 24 24 24 24 24 24 24 24 24 25 25 25 26 26 27 27 26 26 26 27
32 32 32 30 31 31 31 30 30 30 30 29 28 28 28 27 26 25 25 24 24 24 24 24 24 23 23 23 23 23 23 24 24 24 25 26 26 27 27 27 27 27 27
32 33 33 32 31 31 31 30 29 29 28 28 28 28 28 26 25 24 24 23 23 23 22 23 22 22 22 22 22 23 23 23 24 25 25 25 25 26 26 26 26 26 26
33 34 33 32 31 31 31 30 29 28 27 27 26 26 25 24 24 23 23 23 23 22 22 22 22 22 21 21 22 23 23 23 24 24 24 24 24 25 25 25 26 26 27
33 33 33 33 31 31 30 29 28 27 27 26 25 24 23 23 23 23 22 22 22 22 21 21 21 21 21 20 21 22 22 23 23 23 23 24 24 24 24 24 26 27 28
35 33 32 32 31 30 29 28 28 27 25 24 23 23 22 22 23 23 22 21 21 21 20 20 20 21 20 20 21 22 22 21 21 22 23 24 24 24 25 26 27 27 28
33 32 31 30 29 29 29 28 27 27 25 24 23 22 22 22 22 22 21 21 20 20 20 20 20 20 20 21 21 22 21 21 21 22 23 23 23 24 24 26 26 26 26
31 30 29 29 29 29 28 27 27 26 25 24 24 23 22 22 21 20 19 19 19 19 19 19 19 20 20 21 21 21 20 20 21 22 21 21 22 22 23 24 24 24 25
30 30 29 28 27 27 27 27 26 25 24 24 24 24 23 21 19 18 17 18 18 18 17 18 19 19 19 20 20 20 20 20 20 20 20 20 20 21 21 22 23 23 23
30 30 29 27 27 26 26 26 25 25 25 24 24 23 21 19 18 17 17 17 17 17 18 18 18 18 18 19 19 19 19 18 17 18 18 18 19 20 20 22 22 22 22
29 29 28 28 27 26 26 25 25 24 24 23 22 22 21 18 17 16 15 15 16 17 17 17 17 17 17 17 17 17 16 16 16 16 17 17 18 19 19 20 21 21 21
29 28 28 27 26 26 25 24 24 24 23 22 21 21 20 18 17 16 15 15 16 16 17 17 16 16 16 16 16 15 15 15 15 15 15 16 17 18 19 19 19 19 19
29 29 28 27 26 26 25 24 23 23 22 21 20 19 19 17 16 15 15 14 15 16 16 16 15 15 14 14 13 14 14 14 14 15 15 16 17 18 18 17 18 18 18
30 29 28 26 26 25 24 23 22 22 21 20 18 18 18 16 15 15 15 15 15 15 15 15 14 13 13 13 13 13 13 14 14 14 15 16 17 17 17 17 17 17 17
29 28 27 26 25 24 23 22 21 20 20 19 18 18 17 16 16 15 14 15 15 15 14 13 12 12 12 12 12 13 13 14 13 14 15 16 16 16 16 16 16 16 16
28 27 27 25 24 23 22 21 20 20 19 19 18 17 16 16 15 14 14 14 14 13 13 12 12 12 12 12 12 13 13 13 14 14 15 15 15 15 15 15 16 16 16
27 26 26 24 23 22 21 21 20 19 19 18 17 16 16 15 15 14 13 13 13 13 12 12 12 12 12 12 12 13 13 13 14 15 15 14 14 15 14 14 15 15 16
26 26 25 24 22 21 20 19 19 18 18 18 17 16 15 14 14 13 12 12 12 12 11 11 11 12 12 12 13 13 13 13 14 15 15 14 14 14 14 15 15 16 16
26 25 24 23 21 20 19 18 18 18 17 16 16 15 15 14 13 12 12 12 11 11 11 12 12 13 13 12 12 13 13 14 14 15 14 14 14 15 15 15 15 15 16
25 23 22 21 20 19 17 16 16 16 15 15 15 15 14 12 12 12 12 12 12 12 12 12 13 14 14 14 13 13 12 13 14 14 14 14 14 15 15 15 15 16 16
22 21 20 19 17 16 16 16 16 15 15 14 14 13 12 12 12 12 12 11 11 11 12 13 14 14 15 14 13 13 13 13 13 14 15 15 15 15 15 15 16 16 17
Wind_Direction
311 312 312 312 310 308 308 308 306 305 306 304 304 303 299 297 295 294 297 295 292 293 293 289 289 287 285 285 286 286 286 285 285 281 279 276 274 274 272 273 273 274 272
314 313 312 312 311 310 310 308 306 305 306 305 304 303 300 297 296 297 297 298 296 295 293 290 287 286 284 283 284 286 287 286 285 283 280 277 274 275 275 274 274 273 272
313 314 313 312 311 311 311 309 307 307 306 306 305 303 299 296 295 294 295 297 297 293 290 290 286 287 285 285 284 286 288 287 285 284 282 279 276 275 275 275 274 272 270
315 316 313 312 311 310 311 310 309 308 307 306 306 304 302 298 294 294 294 295 295 293 290 289 285 286 288 286 285 286 287 290 287 285 283 280 278 276 275 274 273 272 272
317 316 314 313 311 311 311 311 310 308 307 306 306 304 302 299 295 293 293 293 293 293 292 289 286 286 286 286 286 287 289 290 289 286 284 281 279 281 278 274 272 272 273
316 316 315 313 313 312 312 311 310 308 307 306 305 303 301 298 295 293 293 292 292 291 291 289 288 288 290 290 289 288 289 290 289 288 286 284 282 281 279 277 276 275 272
316 316 315 313 313 312 312 312 312 311 308 305 304 303 301 299 296 294 293 293 292 291 290 288 289 290 290 289 289 289 290 289 289 289 288 285 283 283 281 279 278 275 273
314 314 312 312 312 312 313 313 313 312 310 307 305 303 300 299 298 296 294 294 295 294 291 290 291 292 291 288 289 292 293 291 290 291 290 287 286 285 282 281 279 276 275
315 315 314 314 313 313 313 313 312 311 310 308 307 305 302 300 298 296 294 293 293 295 294 292 292 293 291 289 290 291 293 294 293 293 291 289 287 286 283 283 281 280 278
316 317 316 316 314 314 314 314 314 312 310 308 306 306 305 302 300 296 295 295 293 295 296 293 292 292 291 290 292 295 295 295 295 292 292 291 289 288 286 285 284 283 280
317 318 317 316 315 315 315 315 315 313 311 309 308 306 305 304 303 298 295 294 293 295 295 294 293 292 291 292 294 295 297 296 295 292 292 292 290 289 288 286 284 284 282
319 318 317 317 316 318 317 317 316 315 312 309 307 308 308 306 305 301 297 295 294 294 295 296 294 293 292 293 293 294 295 296 296 296 294 292 290 290 289 287 285 284 282
319 320 319 319 319 320 319 318 317 316 314 311 309 308 309 308 307 302 299 298 296 294 296 297 297 295 295 295 295 294 294 295 296 298 296 295 294 292 291 289 287 286 285
320 320 319 319 320 321 320 320 318 318 317 315 313 311 309 308 306 304 301 300 298 297 299 299 297 296 296 296 296 296 295 295 297 298 296 296 296 295 293 292 289 289 288
320 320 321 320 321 322 322 321 319 318 318 317 315 315 313 310 307 305 305 304 303 302 302 301 299 298 298 297 297 296 297 298 300 300 298 297 298 298 299 297 294 292 290
320 320 321 321 321 322 322 321 320 319 318 317 316 316 318 314 309 307 306 307 306 306 305 302 301 302 299 297 300 300 301 302 304 305 303 302 302 302 303 304 300 296 295
320 320 321 320 321 323 322 321 322 322 319 317 317 317 319 318 314 309 305 305 305 305 305 304 302 301 302 302 302 304 307 308 306 306 307 309 308 307 305 305 305 302 300
320 319 320 320 322 324 323 322 323 323 321 319 318 319 320 318 319 316 312 309 309 310 308 305 302 301 303 304 303 305 306 308 307 307 309 310 311 310 308 306 307 307 305
320 319 319 320 321 322 324 325 325 323 321 320 319 321 324 324 322 318 317 315 315 318 317 313 308 305 306 306 306 308 311 314 311 311 312 313 315 315 315 314 314 312 311
317 318 319 319 321 322 324 324 324 323 322 322 321 321 323 325 325 323 320 321 321 323 322 318 313 311 310 310 310 311 314 316 314 314 316 317 317 318 319 318 317 316 315
316 316 318 318 319 321 322 320 319 320 320 321 321 322 323 324 327 325 324 324 325 323 320 318 317 317 317 317 316 315 316 319 318 317 318 321 322 323 324 324 323 321 321
315 316 316 316 316 317 318 319 319 319 319 321 322 321 323 325 326 327 325 323 323 321 319 317 318 319 319 318 318 317 318 320 321 321 323 325 325 325 326 327 326 326 324
315 315 316 316 314 315 316 318 319 318 318 318 320 321 322 324 325 326 324 322 324 324 323 322 321 319 318 317 317 317 319 322 321 322 323 324 326 325 325 327 329 329 326
315 315 315 316 314 313 314 315 316 316 316 317 317 319 320 321 323 324 324 324 324 327 325 323 323 320 318 318 318 316 316 318 318 320 323 325 326 325 327 328 328 330 329
314 314 315 315 313 312 313 315 316 315 316 317 316 317 318 320 322 322 323 324 325 326 327 325 326 324 322 321 321 320 317 319 323 325 325 326 325 325 324 324 325 328 329
313 313 315 315 315 314 315 317 317 318 319 321 320 319 321 322 321 321 321 320 321 324 326 326 326 326 325 322 320 318 317 319 323 327 327 327 326 325 324 324 325 327 328
Height
5840 5837 5834 5831 5828 5824 5821 5818 5814 5811 5808 5805 5802 5800 5798 5795 5793 5792 5791 5789 5788 5786 5785 5785 5784 5783 5783 5782 5782 5781 5780 5780 5779 5779 5779 5780 5780 5780 5781 5781 5781 5782 5782
5836 5833 5829 5826 5823 5819 5816 5812 5809 5806 5802 5799 5796 5793 5790 5789 5787 5786 5785 5783 5782 5781 5780 5779 5778 5777 5777 5776 5776 5775 5774 5774 5773 5772 5772 5773 5774 5773 5774 5773 5773 5774 5775
5832 5828 5825 5821 5818 5814 5811 5807 5804 5800 5797 5793 5790 5787 5784 5783 5781 5780 5779 5777 5776 5775 5774 5773 5771 5770 5770 5770 5770 5769 5768 5768 5767 5766 5765 5766 5767 5767 5767 5766 5767 5767 5767
5827 5824 5820 5816 5812 5809 5806 5802 5798 5795 5791 5787 5784 5781 5778 5776 5775 5773 5772 5771 5770 5769 5767 5766 5765 5764 5764 5764 5764 5763 5762 5761 5760 5759 5758 5759 5759 5759 5760 5760 5759 5759 5760
5823 5819 5815 5811 5806 5803 5800 5796 5792 5789 5785 5781 5778 5775 5772 5770 5768 5767 5766 5764 5763 5762 5761 5760 5759 5758 5758 5758 5757 5756 5755 5754 5753 5752 5752 5752 5751 5750 5750 5751 5752 5751 5752
5818 5814 5809 5805 5801 5798 5794 5791 5787 5783 5779 5775 5772 5769 5766 5763 5762 5760 5759 5758 5757 5756 5755 5753 5753 5752 5752 5751 5750 5749 5748 5747 5746 5746 5745 5745 5744 5743 5742 5743 5744 5744 5744
5813 5809 5804 5800 5795 5792 5788 5784 5781 5777 5773 5769 5766 5763 5760 5757 5755 5754 5753 5751 5750 5749 5748 5747 5746 5746 5745 5745 5744 5743 5742 5741 5740 5739 5738 5738 5737 5736 5736 5735 5736 5736 5737
5808 5803 5798 5793 5790 5786 5782 5778 5774 5771 5766 5763 5760 5756 5753 5751 5749 5747 5746 5745 5744 5743 5742 5741 5740 5739 5739 5738 5738 5737 5736 5735 5734 5732 5731 5730 5730 5729 5728 5728 5728 5728 5729
5803 5798 5792 5787 5784 5779 5775 5771 5768 5764 5760 5757 5753 5750 5747 5745 5742 5741 5740 5739 5738 5737 5736 5735 5735 5734 5733 5733 5732 5731 5729 5728 5727 5726 5724 5723 5723 5722 5721 5720 5720 5720 5720
5797 5792 5786 5781 5777 5773 5769 5765 5761 5757 5754 5751 5747 5744 5741 5739 5737 5735 5734 5733 5732 5731 5731 5730 5729 5728 5728 5727 5726 5724 5723 5722 5720 5719 5718 5717 5716 5715 5714 5713 5713 5712 5712
5791 5785 5780 5775 5771 5767 5762 5758 5755 5751 5748 5745 5742 5739 5736 5734 5731 5729 5729 5728 5727 5726 5726 5725 5724 5723 5722 5721 5720 5718 5717 5716 5714 5713 5712 5711 5709 5708 5707 5706 5705 5704 5703
5786 5780 5775 5770 5765 5761 5757 5753 5749 5746 5742 5739 5736 5733 5730 5728 5726 5724 5723 5722 5722 5721 5720 5719 5718 5717 5716 5715 5714 5713 5712 5710 5708 5707 5705 5704 5703 5701 5700 5698 5697 5696 5694
5781 5776 5771 5766 5761 5756 5752 5748 5744 5741 5737 5734 5730 5728 5725 5723 5720 5719 5718 5717 5717 5716 5715 5714 5713 5712 5710 5709 5708 5707 5705 5704 5702 5701 5699 5698 5696 5695 5693 5691 5690 5688 5687
5776 5771 5766 5761 5757 5752 5748 5743 5739 5736 5732 5729 5725 5722 5720 5718 5715 5714 5713 5712 5712 5711 5710 5709 5708 5706 5705 5704 5702 5701 5700 5698 5697 5695 5693 5692 5691 5689 5687 5685 5683 5682 5680
5772 5767 5762 5757 5753 5748 5744 5740 5735 5732 5728 5724 5721 5717 5715 5713 5711 5710 5709 5708 5708 5707 5705 5704 5703 5701 5700 5698 5697 5696 5694 5693 5692 5690 5688 5687 5685 5683 5681 5679 5677 5675 5673
5767 5762 5758 5753 5749 5744 5740 5736 5732 5728 5724 5720 5717 5714 5711 5708 5707 5706 5705 5704 5704 5702 5701 5700 5698 5697 5695 5694 5692 5691 5689 5689 5687 5686 5684 5682 5680 5678 5676 5674 5671 5669 5667
5763 5758 5753 5749 5745 5740 5736 5732 5728 5724 5720 5717 5714 5711 5708 5706 5704 5703 5702 5701 5700 5698 5697 5695 5694 5692 5691 5690 5688 5686 5685 5684 5683 5681 5679 5678 5675 5673 5672 5669 5666 5663 5660
5759 5754 5749 5745 5741 5737 5732 5728 5724 5720 5717 5713 5711 5708 5705 5703 5701 5700 5698 5697 5696 5695 5693 5691 5690 5688 5687 5686 5684 5683 5682 5680 5679 5677 5675 5673 5671 5668 5666 5664 5661 5658 5655
5754 5749 5745 5741 5737 5733 5729 5725 5721 5717 5714 5710 5708 5706 5703 5700 5698 5697 5695 5694 5693 5691 5689 5688 5686 5685 5684 5682 5681 5680 5678 5676 5675 5673 5671 5669 5667 5664 5661 5659 5656 5653 5651
5750 5745 5741 5737 5733 5729 5725 5722 5718 5714 5711 5708 5705 5703 5700 5698 5696 5694 5693 5691 5690 5688 5687 5686 5684 5682 5681 5679 5678 5677 5675 5673 5671 5669 5667 5665 5662 5660 5657 5655 5652 5649 5647
5745 5741 5737 5733 5729 5726 5722 5719 5715 5712 5708 5705 5702 5700 5698 5695 5694 5692 5690 5689 5688 5686 5685 5683 5681 5680 5678 5677 5675 5673 5672 5670 5668 5666 5663 5661 5659 5656 5653 5651 5648 5645 5642
5741 5737 5733 5729 5726 5722 5719 5715 5712 5709 5706 5703 5700 5698 5695 5693 5691 5690 5689 5687 5686 5684 5682 5681 5679 5678 5676 5674 5672 5670 5668 5666 5664 5662 5660 5657 5655 5653 5650 5647 5644 5641 5638
5736 5732 5728 5725 5721 5718 5715 5712 5709 5707 5704 5701 5699 5696 5694 5691 5690 5688 5687 5685 5684 5682 5680 5679 5677 5675 5673 5671 5669 5667 5665 5663 5661 5659 5656 5654 5651 5649 5646 5643 5640 5637 5634
5731 5727 5724 5720 5717 5714 5711 5709 5706 5704 5702 5699 5696 5694 5692 5690 5688 5686 5685 5683 5681 5680 5678 5677 5675 5673 5671 5668 5666 5664 5662 5660 5658 5655 5653 5650 5648 5645 5642 5640 5637 5634 5631
5726 5722 5719 5716 5713 5710 5708 5706 5703 5701 5699 5696 5694 5692 5689 5688 5686 5684 5683 5681 5679 5677 5676 5674 5672 5670 5668 5665 5663 5661 5659 5657 5655 5652 5650 5647 5645 5642 5639 5636 5634 5631 5628
5721 5718 5715 5712 5710 5707 5705 5703 5700 5698 5696 5694 5691 5689 5687 5685 5684 5682 5681 5679 5677 5676 5674 5672 5670 5667 5665 5662 5660 5658 5656 5654 5652 5650 5647 5644 5641 5639 5636 5633 5631 5628 5625